When you browse on this site, cookies collect data to enhance your experience and personalize the content and advertising you see.
Visit our Privacy Policy to learn more. By continuing to use the site, you agree to this use of cookies and data.
  • In Romania
  • List of Countries
  • For 7 days
  • Water Temperature
  • Satellite Maps
  • Weather Map
  • Weather Widgets
  • user-avatar
    Login

    Hourly Weather Elbasan

    Today, 20 April, Saturday

    Time Temperature Precipitation Wind Pressure Humidity
    00:00 +11°C° 0 mm 1 mps 741 mmHg 80%
    01:00 +11°C° 0 mm 1 mps 741 mmHg 78%
    02:00 +11°C° 0 mm 1 mps 741 mmHg 77%
    03:00 +10°C° 0 mm 1 mps 740 mmHg 76%
    04:00 +9°C° 0 mm 2 mps 740 mmHg 75%
    05:00 +12°C° 0 mm 2 mps 740 mmHg 72%
    06:00 +13°C° 0 mm 1 mps 740 mmHg 68%
    07:00 +14°C° 0 mm 1 mps 740 mmHg 65%
    08:00 +16°C° 0 mm 1 mps 740 mmHg 58%
    09:00 +18°C° 0 mm 1 mps 740 mmHg 51%
    10:00 +20°C° 0 mm 1 mps 740 mmHg 43%
    11:00 +20°C° 0 mm 1 mps 740 mmHg 43%
    12:00 +20°C° 0 mm 1 mps 740 mmHg 42%
    13:00 +21°C° 0 mm 1 mps 740 mmHg 41%
    14:00 +19°C° 0 mm 2 mps 740 mmHg 43%
    15:00 +19°C° 0 mm 2 mps 740 mmHg 45%
    16:00 +19°C° 0 mm 2 mps 740 mmHg 47%
    17:00 +17°C° 0 mm 2 mps 740 mmHg 53%
    18:00 +16°C° 0 mm 1 mps 740 mmHg 59%
    19:00 +14°C° 0 mm 1 mps 740 mmHg 65%
    20:00 +14°C° 0 mm 1 mps 740 mmHg 66%
    21:00 +13°C° 0 mm 2 mps 741 mmHg 66%
    22:00 +13°C° 0 mm 2 mps 741 mmHg 67%
    23:00 +12°C° 0 mm 2 mps 741 mmHg 68%

    Tomorrow, 21 April, Sunday

    Time Temperature Precipitation Wind Pressure Humidity
    00:00 +12°C° 0 mm 2 mps 741 mmHg 68%
    01:00 +12°C° 0 mm 2 mps 741 mmHg 69%
    02:00 +10°C° 0 mm 2 mps 741 mmHg 69%
    03:00 +10°C° 0 mm 2 mps 741 mmHg 70%
    04:00 +10°C° 0 mm 2 mps 740 mmHg 71%
    05:00 +12°C° 0 mm 2 mps 741 mmHg 68%
    06:00 +13°C° 0 mm 1 mps 741 mmHg 65%
    07:00 +14°C° 0 mm 1 mps 741 mmHg 62%
    08:00 +15°C° 0 mm 1 mps 741 mmHg 59%
    09:00 +17°C° 0 mm 2 mps 741 mmHg 56%
    10:00 +18°C° 0 mm 2 mps 741 mmHg 54%
    11:00 +18°C° 0.1 mm 2 mps 740 mmHg 53%
    12:00 +19°C° 0.1 mm 3 mps 740 mmHg 53%
    13:00 +19°C° 0.1 mm 3 mps 740 mmHg 53%
    14:00 +19°C° 0.2 mm 3 mps 739 mmHg 58%
    15:00 +18°C° 0.2 mm 3 mps 739 mmHg 62%
    16:00 +18°C° 0.2 mm 3 mps 738 mmHg 67%
    17:00 +16°C° 0.1 mm 3 mps 738 mmHg 75%
    18:00 +15°C° 0.1 mm 2 mps 738 mmHg 82%
    19:00 +13°C° 0.1 mm 1 mps 738 mmHg 90%
    20:00 +13°C° 0 mm 1 mps 738 mmHg 91%
    21:00 +12°C° 0 mm 1 mps 739 mmHg 92%
    22:00 +11°C° 0 mm 0 mps 739 mmHg 92%
    23:00 +11°C° 0 mm 0 mps 738 mmHg 91%

    Day after tomorrow, 22 April, Monday

    Time Temperature Precipitation Wind Pressure Humidity
    00:00 +10°C° 0 mm 0 mps 738 mmHg 90%
    01:00 +10°C° 0 mm 0 mps 738 mmHg 89%
    02:00 +10°C° 0 mm 0 mps 738 mmHg 90%
    03:00 +10°C° 0 mm 0 mps 738 mmHg 90%
    04:00 +9°C° 0 mm 0 mps 738 mmHg 90%
    05:00 +12°C° 0 mm 1 mps 738 mmHg 85%
    06:00 +13°C° 0 mm 1 mps 737 mmHg 80%
    07:00 +14°C° 0 mm 1 mps 737 mmHg 76%
    08:00 +16°C° 0 mm 1 mps 737 mmHg 69%
    09:00 +17°C° 0 mm 2 mps 737 mmHg 62%
    10:00 +18°C° 0 mm 2 mps 737 mmHg 55%
    11:00 +19°C° 0 mm 2 mps 737 mmHg 53%
    12:00 +20°C° 0 mm 2 mps 736 mmHg 51%
    13:00 +20°C° 0 mm 2 mps 736 mmHg 49%
    14:00 +20°C° 0 mm 2 mps 736 mmHg 51%
    15:00 +20°C° 0 mm 2 mps 736 mmHg 53%
    16:00 +20°C° 0 mm 3 mps 735 mmHg 55%
    17:00 +19°C° 0 mm 2 mps 735 mmHg 62%
    18:00 +17°C° 0 mm 2 mps 735 mmHg 68%
    19:00 +16°C° 0 mm 1 mps 735 mmHg 75%
    20:00 +16°C° 0.4 mm 2 mps 735 mmHg 77%
    21:00 +15°C° 0.4 mm 2 mps 735 mmHg 80%
    22:00 +15°C° 0.4 mm 2 mps 735 mmHg 82%
    23:00 +15°C° 0 mm 2 mps 735 mmHg 82%

    23 April, Tuesday

    Time Temperature Precipitation Wind Pressure Humidity
    00:00 +13°C° 0 mm 3 mps 735 mmHg 83%
    01:00 +13°C° 0 mm 3 mps 735 mmHg 83%
    02:00 +13°C° 0.7 mm 3 mps 734 mmHg 84%
    03:00 +13°C° 0.7 mm 3 mps 734 mmHg 84%
    04:00 +13°C° 0.7 mm 4 mps 734 mmHg 85%
    05:00 +13°C° 0.5 mm 4 mps 734 mmHg 82%
    06:00 +14°C° 0.5 mm 4 mps 734 mmHg 80%
    07:00 +14°C° 0.5 mm 4 mps 734 mmHg 77%
    08:00 +17°C° 0 mm 4 mps 735 mmHg 67%
    09:00 +20°C° 0 mm 4 mps 735 mmHg 57%
    10:00 +22°C° 0 mm 5 mps 735 mmHg 48%
    11:00 +22°C° 0 mm 5 mps 735 mmHg 49%
    12:00 +22°C° 0 mm 5 mps 735 mmHg 50%
    13:00 +22°C° 0 mm 5 mps 735 mmHg 51%
    14:00 +22°C° 0 mm 4 mps 735 mmHg 52%
    15:00 +21°C° 0 mm 4 mps 735 mmHg 53%
    16:00 +21°C° 0 mm 4 mps 735 mmHg 53%
    17:00 +19°C° 0.1 mm 4 mps 736 mmHg 59%
    18:00 +18°C° 0.1 mm 3 mps 736 mmHg 64%
    19:00 +17°C° 0.1 mm 2 mps 736 mmHg 70%
    20:00 +16°C° 0 mm 2 mps 737 mmHg 71%
    21:00 +16°C° 0 mm 2 mps 737 mmHg 73%
    22:00 +15°C° 0 mm 2 mps 737 mmHg 74%
    23:00 +14°C° 0 mm 3 mps 737 mmHg 75%

    24 April, Wednesday

    Time Temperature Precipitation Wind Pressure Humidity
    00:00 +14°C° 0 mm 3 mps 737 mmHg 75%
    01:00 +14°C° 0 mm 3 mps 737 mmHg 75%
    02:00 +13°C° 0 mm 3 mps 737 mmHg 75%
    03:00 +13°C° 0 mm 3 mps 737 mmHg 75%
    04:00 +13°C° 0 mm 3 mps 737 mmHg 75%
    05:00 +14°C° 0 mm 3 mps 737 mmHg 73%
    06:00 +16°C° 0 mm 3 mps 737 mmHg 70%
    07:00 +17°C° 0 mm 3 mps 738 mmHg 68%
    08:00 +19°C° 0 mm 3 mps 738 mmHg 60%
    09:00 +21°C° 0 mm 2 mps 738 mmHg 51%
    10:00 +24°C° 0 mm 2 mps 738 mmHg 43%
    11:00 +25°C° 0 mm 2 mps 738 mmHg 41%
    12:00 +26°C° 0 mm 2 mps 738 mmHg 40%
    13:00 +27°C° 0 mm 2 mps 738 mmHg 39%
    14:00 +26°C° 0 mm 2 mps 738 mmHg 43%
    15:00 +26°C° 0 mm 3 mps 738 mmHg 47%
    16:00 +25°C° 0 mm 3 mps 738 mmHg 51%
    17:00 +23°C° 0 mm 2 mps 738 mmHg 58%
    18:00 +20°C° 0 mm 2 mps 738 mmHg 64%
    19:00 +19°C° 0 mm 1 mps 738 mmHg 71%
    20:00 +19°C° 0 mm 1 mps 738 mmHg 72%
    21:00 +18°C° 0 mm 1 mps 739 mmHg 72%
    22:00 +18°C° 0 mm 1 mps 739 mmHg 73%
    23:00 +18°C° 0 mm 1 mps 739 mmHg 74%

    25 April, Thursday

    Time Temperature Precipitation Wind Pressure Humidity
    00:00 +16°C° 0 mm 2 mps 739 mmHg 75%
    01:00 +16°C° 0 mm 2 mps 739 mmHg 77%
    02:00 +16°C° 0 mm 2 mps 739 mmHg 77%
    03:00 +16°C° 0 mm 2 mps 738 mmHg 78%
    04:00 +16°C° 0 mm 2 mps 738 mmHg 78%
    05:00 +17°C° 0.1 mm 2 mps 738 mmHg 75%
    06:00 +18°C° 0.1 mm 2 mps 739 mmHg 73%
    07:00 +19°C° 0.1 mm 3 mps 739 mmHg 70%
    08:00 +21°C° 0.2 mm 3 mps 739 mmHg 64%
    09:00 +22°C° 0.2 mm 3 mps 739 mmHg 58%
    10:00 +25°C° 0.2 mm 3 mps 739 mmHg 52%
    11:00 +26°C° 0 mm 3 mps 739 mmHg 47%
    12:00 +28°C° 0 mm 3 mps 738 mmHg 42%
    13:00 +29°C° 0 mm 3 mps 738 mmHg 37%
    14:00 +29°C° 0 mm 2 mps 738 mmHg 35%
    15:00 +30°C° 0 mm 2 mps 737 mmHg 33%
    16:00 +30°C° 0 mm 1 mps 737 mmHg 32%
    17:00 +28°C° 0 mm 1 mps 737 mmHg 39%
    18:00 +25°C° 0 mm 1 mps 737 mmHg 47%
    19:00 +23°C° 0 mm 1 mps 737 mmHg 55%
    20:00 +22°C° 0 mm 1 mps 737 mmHg 60%
    21:00 +21°C° 0 mm 1 mps 737 mmHg 65%
    22:00 +19°C° 0 mm 2 mps 737 mmHg 71%
    23:00 +19°C° 0 mm 2 mps 736 mmHg 74%
    Show more